Temperature
21 19 19 20 24 29 31 31 32 32 32 31 30 30 31 31 30 29 24 23 22 21 21 22 22 21 21 21 21 21 20 20 20 20 20 20 20 19 20 20 20 19 19 19 18 18 18 19 19
20 19 20 24 29 32 31 32 32 31 31 30 30 30 31 30 27 25 23 22 22 21 21 21 21 21 21 21 21 21 20 20 20 20 20 20 20 20 19 20 19 19 19 19 19 19 19 19 19
19 20 24 29 32 32 31 32 32 31 30 30 30 30 30 28 25 24 23 22 22 21 20 21 21 21 21 21 21 21 21 20 20 20 20 20 20 20 20 20 19 19 19 19 19 19 19 19 19
20 22 26 30 32 32 32 32 32 32 31 30 31 30 28 25 24 24 23 22 22 21 20 21 21 21 21 21 21 21 21 20 20 20 20 20 20 20 20 20 19 19 19 19 19 19 19 20 19
22 27 31 32 32 32 32 31 31 32 32 31 31 31 28 23 23 23 23 23 22 21 20 20 21 20 20 20 20 20 20 20 20 20 20 20 20 20 20 19 19 19 19 19 19 19 19 19 19
26 30 32 32 32 32 33 32 31 32 32 31 31 31 27 23 23 23 23 22 22 21 20 19 20 20 20 20 20 20 20 20 20 20 20 20 20 19 19 19 19 19 19 19 19 19 19 19 19
28 31 32 32 32 32 33 32 32 32 32 31 30 31 27 24 23 23 22 22 22 21 21 19 19 20 20 20 20 20 20 20 20 20 20 20 20 19 19 19 19 19 19 19 19 19 19 19 19
28 31 32 32 31 32 32 32 31 31 31 29 29 30 28 24 23 22 21 21 21 21 20 19 19 19 19 19 20 20 20 20 20 20 20 20 20 20 19 19 19 19 19 19 19 19 19 19 19
27 31 31 32 31 32 32 32 31 30 30 28 27 27 25 23 23 22 21 20 20 20 20 19 19 19 19 19 19 20 20 20 20 20 20 20 19 19 19 19 19 19 19 19 19 19 19 19 18
29 31 32 31 31 31 31 30 29 30 30 28 25 23 23 22 22 23 22 21 20 20 20 20 20 19 19 19 19 19 19 19 19 18 18 19 18 18 18 18 19 19 19 19 19 18 18 18 17
30 31 31 31 30 30 30 29 27 29 28 24 24 23 22 22 22 23 22 22 21 20 20 19 19 19 19 19 18 18 18 18 18 18 18 18 18 18 18 18 18 18 18 18 18 18 17 17 17
30 30 29 29 29 28 28 28 26 23 21 20 21 22 22 22 23 23 22 21 20 20 19 19 18 18 18 18 18 18 18 18 18 18 18 18 18 18 18 18 18 18 18 17 17 18 17 17 17
29 30 28 28 27 26 26 25 23 20 19 19 19 20 20 21 21 20 20 19 19 18 18 18 18 18 18 18 18 18 18 18 18 18 17 17 18 18 18 18 18 18 18 18 17 17 17 17 17
29 29 28 27 26 25 25 24 22 19 18 18 18 17 17 17 18 18 18 18 18 17 17 17 17 17 18 18 18 18 17 17 17 17 17 17 17 17 17 17 17 17 17 17 17 17 17 17 17
28 29 28 27 26 26 26 24 21 19 18 18 17 16 16 16 16 16 16 16 17 17 17 17 17 17 17 17 17 17 17 17 17 16 16 16 16 17 17 17 17 17 17 17 17 17 17 17 17
29 30 29 26 26 26 27 23 20 18 18 18 17 16 16 15 16 15 16 16 16 16 17 17 16 17 17 17 17 17 17 16 16 16 16 16 16 16 16 16 17 17 17 17 17 17 17 17 17
30 30 29 27 26 27 26 22 19 18 18 17 17 16 16 15 15 15 15 16 16 16 16 16 16 17 17 17 17 16 16 16 16 16 16 15 15 16 16 16 16 17 17 17 17 17 17 17 17
29 29 28 27 25 26 24 21 20 18 18 17 17 17 16 16 15 15 15 16 16 16 16 16 16 17 16 16 16 16 16 16 15 15 15 15 15 15 15 16 16 16 16 16 17 17 16 17 17
29 29 28 26 25 25 23 21 20 19 19 18 18 17 17 16 16 16 16 16 16 16 16 16 16 16 17 16 16 15 15 15 15 15 15 15 15 15 15 15 15 16 16 16 16 16 16 16 16
29 28 28 25 24 24 23 22 21 20 19 18 18 18 17 17 17 16 16 16 16 16 16 16 16 16 16 16 15 15 15 15 15 15 15 15 15 15 15 15 15 15 16 16 16 16 16 17 16
29 29 28 26 24 24 24 23 22 22 20 19 18 18 18 17 17 17 16 16 16 16 16 16 16 16 15 15 15 15 15 15 14 14 14 14 15 15 15 15 15 15 15 16 16 15 15 16 16
28 29 28 26 25 26 25 24 23 22 22 21 20 19 18 18 17 17 17 16 16 16 16 15 15 15 15 15 14 14 14 14 14 14 13 14 14 14 15 15 15 15 15 15 15 15 15 15 16
28 28 28 27 27 26 25 25 23 23 22 22 21 20 19 18 18 17 17 16 16 16 15 15 14 14 14 14 14 13 14 14 14 13 13 13 13 13 14 14 14 14 14 14 15 15 15 15 15
27 27 27 27 27 25 26 25 23 23 23 22 22 20 19 18 18 17 17 16 16 15 15 14 14 13 13 13 13 13 13 13 13 13 13 13 13 13 13 13 13 14 14 14 14 14 14 15 15
28 27 26 26 26 25 25 25 23 22 22 22 22 20 19 18 18 17 17 16 15 15 14 14 13 13 12 12 12 12 12 12 12 12 13 12 13 13 12 12 12 12 13 13 13 14 14 14 14
27 27 26 25 25 25 25 24 22 22 21 21 20 20 19 18 18 17 17 16 15 15 14 13 13 12 12 12 12 11 11 12 12 12 12 12 12 12 12 11 11 12 12 12 12 13 13 13 14
27 27 28 27 26 25 25 23 21 21 21 21 20 20 19 18 17 17 16 15 15 14 13 13 12 12 11 11 11 11 11 11 11 11 11 11 11 11 11 11 11 11 11 11 11 12 12 13 13
27 27 27 26 24 24 25 24 23 22 22 22 21 20 19 18 17 17 16 15 14 13 13 12 12 11 11 10 10 11 10 10 10 10 10 10 10 10 10 10 10 10 10 10 11 11 11 11 12
26 26 26 26 25 24 24 24 23 22 21 21 20 19 18 17 16 16 15 14 13 13 12 12 11 11 10 10 9 9 9 9 9 9 9 9 9 10 10 10 10 10 10 10 10 10 10 11 11
26 25 25 25 24 24 24 24 22 22 21 20 19 18 17 16 15 15 14 13 13 12 11 11 10 10 10 9 8 8 8 8 8 9 9 8 8 9 9 10 10 10 10 10 10 10 10 10 10
Wind_Speed
19 15 9 5 5 4 6 7 6 5 4 4 2 1 5 6 6 4 4 11 15 19 22 23 20 19 17 16 14 14 14 14 14 15 15 14 14 13 13 12 12 11 10 9 9 9 9 8 8
14 11 6 5 5 4 7 6 6 6 4 2 1 2 3 4 5 4 6 12 17 19 21 20 20 18 17 15 14 14 13 13 13 13 14 13 12 12 11 11 11 10 10 9 8 8 8 8 8
11 8 5 5 3 6 7 7 6 3 2 1 1 3 4 5 4 4 8 15 17 18 18 19 20 18 17 15 14 13 13 12 12 12 12 12 12 11 11 11 11 10 9 9 9 8 8 8 8
7 6 5 6 3 6 6 7 5 2 2 2 2 4 5 7 4 7 13 16 17 17 17 20 19 17 16 15 14 13 12 12 12 12 12 12 12 12 11 11 11 10 9 9 8 8 9 9 8
6 5 6 3 3 5 5 6 4 3 3 4 3 5 6 6 8 12 14 15 16 16 15 20 18 16 15 14 13 13 12 12 11 11 11 11 12 12 12 12 11 10 10 9 9 9 9 9 9
4 5 7 3 4 4 5 5 3 3 3 3 3 5 6 7 9 12 13 13 15 15 14 18 17 15 15 14 13 12 12 12 12 11 11 11 11 11 12 12 11 11 10 10 10 10 10 10 11
6 6 6 4 2 3 7 8 6 5 5 5 3 4 7 9 10 12 12 12 13 13 13 15 16 16 14 13 13 13 13 13 13 12 12 12 11 11 11 11 12 12 11 11 11 11 11 12 12
6 6 7 4 2 3 8 8 8 8 6 5 4 3 6 10 13 13 13 12 11 11 12 12 13 14 15 15 15 14 14 14 14 14 14 13 13 13 13 13 13 13 12 13 13 13 13 13 14
5 7 9 4 2 4 10 10 9 4 5 7 8 8 6 14 16 16 14 12 11 11 10 11 12 12 13 13 14 15 15 15 15 15 16 15 15 16 16 18 16 15 15 15 15 15 16 15 17
6 10 6 2 4 7 8 9 10 4 5 8 8 7 8 12 15 16 15 14 14 13 12 10 10 10 11 9 10 11 13 14 15 14 15 15 14 13 14 12 15 16 17 17 18 17 17 17 16
6 8 3 3 5 7 6 5 10 7 7 12 9 2 5 9 11 12 12 12 13 13 12 11 9 7 7 6 6 7 8 9 12 14 14 14 13 13 13 11 13 16 18 17 17 18 17 16 14
7 6 5 5 6 6 5 2 7 14 10 11 8 4 5 6 7 8 9 9 9 9 9 7 5 4 5 5 6 7 7 7 9 11 14 13 9 10 10 9 11 11 12 12 13 11 14 15 15
8 4 2 3 2 4 6 8 8 12 11 10 11 10 8 7 7 7 6 6 5 4 3 2 1 2 3 4 6 7 7 9 11 11 12 14 11 12 11 9 10 12 12 11 11 12 12 13 13
3 3 0 3 5 7 11 10 7 9 9 10 12 13 13 12 11 10 9 7 6 4 3 2 2 3 4 5 6 7 9 10 12 12 14 15 13 11 10 11 10 11 12 12 11 12 12 12 11
4 5 7 6 5 7 6 10 8 7 7 10 11 12 13 12 11 11 9 8 7 6 5 4 4 4 6 7 8 8 9 11 10 12 14 15 15 12 11 11 11 11 12 12 11 12 11 11 12
6 9 7 7 2 3 5 6 8 5 7 9 10 10 11 11 11 10 9 9 8 7 7 7 6 7 7 7 7 7 8 10 10 11 11 13 14 13 10 10 10 10 10 9 10 10 9 10 10
7 4 5 7 7 2 4 7 7 6 7 8 8 9 9 9 10 9 8 8 7 7 6 6 7 7 8 8 7 7 7 7 8 8 8 10 10 10 8 9 9 9 8 9 10 9 8 9 9
2 2 3 6 7 8 10 9 7 6 7 7 7 8 8 8 8 7 7 7 6 6 6 6 7 8 9 8 7 7 7 6 6 6 6 7 6 7 7 7 7 7 7 7 7 8 7 7 8
1 2 3 7 5 7 10 10 8 6 6 6 6 7 7 7 7 6 6 6 6 6 6 7 8 9 8 8 9 9 9 8 7 7 8 7 6 6 6 6 5 6 7 7 7 7 8 8 7
3 3 5 7 6 5 10 10 8 6 6 6 6 7 7 7 7 6 5 5 5 6 6 6 8 9 9 8 8 7 8 8 6 6 7 8 8 8 6 5 4 5 5 6 6 7 8 7 7
5 4 2 6 8 8 10 8 7 7 6 6 5 5 5 4 4 4 3 3 4 5 6 7 8 8 9 9 8 9 8 7 7 8 7 8 8 7 7 7 6 6 7 7 7 8 10 9 8
4 1 2 9 10 6 9 4 8 7 6 5 5 4 3 2 1 2 3 4 5 6 7 8 8 9 9 9 9 10 9 9 9 8 7 8 8 7 7 6 6 6 7 7 8 9 9 10 9
3 2 3 9 8 5 7 4 8 8 6 6 5 4 3 2 2 3 5 7 8 9 10 10 10 10 10 10 10 10 11 10 9 9 8 8 7 6 6 5 5 5 6 7 8 8 9 9 11
3 3 5 8 9 7 3 5 7 6 4 4 5 5 4 4 5 6 8 9 10 11 11 11 11 12 12 12 11 11 12 12 12 11 11 9 7 5 5 5 4 4 5 6 7 8 11 11 11
4 7 6 6 7 3 4 4 5 5 2 1 3 4 5 6 7 9 10 12 13 13 13 13 13 13 13 14 13 13 13 13 13 13 12 11 10 8 6 6 5 5 4 6 7 8 10 11 12
3 6 6 7 6 1 5 2 6 4 1 2 4 5 6 8 9 11 12 13 14 14 14 14 14 15 15 15 14 14 14 14 13 13 13 13 12 11 9 9 8 7 6 6 6 7 9 9 11
2 3 5 7 6 6 2 5 6 4 2 3 5 6 7 9 11 13 13 14 14 14 14 15 15 16 16 16 16 15 15 14 15 16 15 15 12 12 12 12 11 10 9 8 7 7 8 8 10
4 2 4 6 6 7 3 3 3 4 3 4 6 7 9 10 13 14 14 14 14 15 15 16 16 17 17 17 16 15 16 16 16 16 16 16 16 15 15 15 14 13 12 11 10 9 8 8 9
2 2 4 4 5 7 7 3 5 3 4 6 7 8 10 13 15 15 14 14 16 17 17 17 18 18 18 18 17 17 17 17 17 16 17 16 16 16 16 16 16 16 15 13 12 12 10 10 9
4 4 4 5 5 5 8 3 7 2 5 7 9 10 12 14 15 15 16 16 17 18 18 19 19 19 18 18 18 18 18 18 18 18 17 17 16 17 18 17 17 18 17 16 15 14 13 12 11
Wind_Direction
160 166 179 201 233 228 41 36 17 19 24 24 23 322 339 346 344 13 85 144 149 150 149 156 160 162 162 160 157 154 153 154 156 159 159 159 160 161 164 165 167 168 168 161 155 148 142 138 137
162 167 196 230 270 20 50 27 16 23 27 32 38 308 338 27 34 74 119 143 152 151 151 158 157 162 163 161 159 157 157 158 159 161 162 164 165 167 170 173 174 176 175 168 165 159 152 148 147
165 196 241 250 315 19 23 15 10 20 41 350 20 7 17 34 58 93 125 147 153 150 152 151 158 162 163 163 161 161 161 162 166 168 169 171 173 175 179 181 182 184 182 175 172 170 163 161 160
182 216 237 258 350 41 15 5 0 348 78 55 23 72 74 42 55 107 132 150 151 151 156 151 161 163 164 165 165 165 166 168 172 176 178 181 184 186 189 188 189 189 185 181 180 178 175 173 173
229 252 251 257 34 41 28 15 358 342 23 47 28 67 80 65 87 118 138 149 152 156 157 151 162 164 166 168 169 170 172 176 180 184 187 190 193 195 197 197 197 196 191 188 190 191 188 184 185
234 253 269 314 47 46 38 23 358 5 28 43 28 73 86 106 116 130 140 152 154 156 156 148 161 167 170 172 174 177 180 183 188 192 196 200 202 204 206 205 206 206 202 199 200 203 201 198 198
265 272 287 307 356 51 24 5 5 1 32 45 25 72 111 118 124 134 139 148 153 158 157 156 168 173 176 179 182 185 188 191 194 199 203 208 212 215 217 216 215 215 214 211 211 214 214 211 210
268 272 263 263 299 15 14 7 19 9 42 49 18 52 112 135 139 137 138 145 151 161 163 163 177 177 184 187 189 194 197 199 201 204 207 211 216 221 224 227 220 223 224 223 221 222 222 221 219
250 256 261 271 311 345 2 1 13 20 59 63 47 40 92 138 144 143 142 145 154 164 170 175 179 183 193 197 188 198 205 209 211 213 213 216 223 221 216 223 219 224 230 231 229 228 227 226 224
232 255 269 332 331 335 349 1 358 345 45 39 35 50 110 147 157 158 157 158 164 171 178 181 189 189 199 206 201 211 216 213 219 225 218 219 228 235 233 211 211 225 232 235 234 233 233 232 232
233 260 287 288 320 329 331 16 20 2 25 3 347 35 142 158 169 166 162 166 168 173 180 187 194 199 213 218 228 232 238 235 232 234 233 234 235 234 235 229 215 222 229 234 230 228 232 231 230
240 251 273 297 323 324 331 21 48 41 23 5 16 75 124 150 155 157 156 158 162 174 182 187 191 209 230 251 253 253 252 251 249 242 238 238 236 238 236 233 234 227 227 229 235 231 233 236 234
235 248 283 325 14 73 90 84 76 43 31 36 51 60 68 81 90 90 99 112 127 144 152 166 229 250 270 273 274 271 270 266 262 260 251 246 243 241 237 235 235 237 236 230 231 236 237 238 238
245 251 244 68 105 108 100 81 65 38 37 52 59 60 57 57 59 63 62 63 63 59 51 22 325 313 303 288 283 279 275 268 268 263 255 250 249 247 245 240 235 236 238 241 240 240 241 242 242
244 195 137 84 129 151 135 69 48 41 60 66 67 65 61 56 56 54 52 51 50 47 36 15 340 330 312 300 296 292 288 285 277 272 266 258 253 250 246 246 241 239 239 237 240 243 244 245 244
206 196 149 75 73 171 221 77 53 52 72 70 67 66 65 59 58 55 53 48 41 34 29 15 359 346 328 317 310 306 302 300 292 286 275 262 253 251 250 249 248 245 241 237 237 239 241 245 248
192 179 133 101 46 115 104 95 68 60 75 71 66 67 68 68 62 58 55 53 47 42 33 25 13 356 340 327 318 314 313 309 306 300 290 273 262 260 260 253 251 248 238 237 242 235 240 245 246
162 179 132 96 69 92 99 101 82 69 75 74 75 75 73 71 64 62 63 65 63 56 46 31 21 10 354 350 339 330 330 327 327 325 325 313 287 276 273 263 262 256 245 238 238 249 241 253 251
282 246 125 108 113 94 104 102 92 87 86 87 86 83 81 79 79 75 73 70 69 58 47 33 21 16 5 3 352 345 342 339 344 346 353 348 339 330 289 278 276 266 255 251 249 248 241 242 243
227 222 138 125 135 129 121 108 102 96 92 93 99 100 100 96 91 82 76 68 55 44 30 23 17 12 5 5 347 341 335 329 344 352 359 358 353 347 334 312 289 279 279 267 263 252 261 253 233
230 269 177 157 154 157 145 130 129 120 118 119 116 113 109 97 86 78 57 39 23 17 7 2 357 352 354 346 340 343 336 333 346 351 356 356 354 353 354 338 329 315 296 279 265 252 247 254 241
263 342 198 168 182 187 216 185 154 150 148 147 144 146 139 124 85 40 6 356 351 348 344 342 339 336 333 328 335 337 334 335 336 335 344 346 353 351 349 345 338 324 302 289 273 253 246 246 248
8 30 197 196 221 204 210 230 150 170 176 173 178 184 194 220 294 318 324 327 329 329 329 329 329 326 322 317 311 308 313 318 319 323 324 326 334 336 337 337 336 326 310 299 284 278 254 243 247
133 165 177 210 229 226 195 250 155 168 177 182 198 218 239 261 283 298 309 315 318 320 322 323 325 323 319 311 306 299 300 301 305 306 306 306 307 304 308 311 314 310 306 301 293 280 261 253 249
233 256 254 234 230 199 158 244 108 121 136 237 252 249 256 271 286 299 307 314 316 317 319 320 321 319 318 314 306 299 295 293 286 288 293 294 294 290 286 285 281 281 281 286 290 284 276 264 252
305 288 295 302 307 298 183 205 114 116 139 267 276 277 276 283 296 306 311 314 316 317 319 320 321 318 315 312 309 303 296 290 291 292 293 291 287 286 285 271 262 259 261 266 270 276 275 271 263
290 326 333 291 289 287 190 131 136 157 217 271 282 286 291 301 308 309 313 315 319 320 319 318 317 314 313 313 309 300 297 295 294 292 283 279 278 278 273 265 259 254 249 251 255 258 267 272 267
24 346 297 308 317 307 290 221 154 160 313 314 307 309 311 312 314 317 318 317 318 317 317 316 315 314 312 310 310 308 307 301 295 290 289 287 283 278 273 267 261 255 249 242 243 251 251 257 262
14 16 336 319 328 317 318 17 86 34 334 321 319 320 319 320 321 321 318 317 317 316 317 318 317 315 313 312 311 308 304 302 298 293 288 283 279 277 271 264 260 255 250 245 240 244 245 247 254
44 17 342 324 332 311 308 9 112 14 322 312 314 320 322 321 319 319 319 319 318 318 318 317 316 313 312 311 309 306 304 301 299 296 294 290 283 276 270 264 258 254 251 247 242 242 242 241 243
Height
1522 1524 1527 1530 1524 1509 1503 1499 1496 1494 1494 1497 1498 1497 1496 1496 1499 1507 1510 1508 1510 1512 1513 1516 1520 1523 1526 1528 1530 1533 1535 1537 1539 1541 1543 1544 1545 1547 1548 1548 1549 1550 1551 1552 1553 1554 1555 1556 1556
1525 1526 1529 1526 1511 1504 1504 1498 1497 1497 1498 1499 1499 1499 1498 1500 1505 1508 1508 1509 1511 1514 1516 1518 1521 1524 1527 1529 1532 1534 1536 1538 1540 1541 1543 1544 1546 1547 1548 1549 1550 1550 1552 1553 1554 1555 1555 1556 1557
1526 1527 1527 1515 1502 1505 1505 1498 1497 1498 1499 1500 1500 1500 1501 1505 1508 1509 1510 1510 1514 1517 1519 1520 1523 1526 1528 1531 1533 1535 1537 1538 1540 1541 1543 1544 1545 1547 1548 1549 1550 1551 1552 1553 1554 1555 1556 1556 1557
1527 1528 1523 1510 1501 1500 1500 1498 1498 1497 1497 1500 1499 1501 1506 1510 1511 1511 1511 1513 1517 1519 1522 1522 1524 1527 1530 1532 1534 1536 1537 1539 1540 1541 1542 1544 1545 1546 1547 1548 1549 1551 1552 1553 1554 1554 1555 1556 1557
1527 1523 1510 1502 1499 1499 1498 1499 1499 1496 1496 1499 1500 1500 1507 1512 1511 1512 1513 1516 1519 1521 1524 1524 1526 1529 1531 1533 1535 1536 1538 1539 1540 1541 1542 1544 1545 1546 1547 1548 1549 1550 1551 1552 1553 1554 1555 1556 1557
1525 1516 1507 1504 1501 1499 1496 1498 1498 1497 1497 1500 1501 1501 1509 1512 1513 1514 1516 1518 1521 1524 1526 1525 1527 1529 1531 1533 1535 1536 1537 1539 1540 1541 1542 1543 1544 1545 1546 1547 1548 1549 1550 1551 1552 1553 1554 1555 1557
1521 1510 1506 1504 1503 1500 1499 1499 1497 1496 1497 1501 1503 1502 1509 1513 1514 1515 1517 1520 1523 1525 1528 1527 1528 1530 1531 1533 1534 1536 1537 1538 1539 1540 1541 1542 1543 1544 1545 1546 1547 1548 1549 1550 1551 1552 1553 1554 1555
1519 1511 1504 1502 1505 1502 1499 1499 1500 1500 1501 1505 1504 1503 1508 1513 1513 1515 1517 1520 1523 1525 1528 1528 1531 1531 1532 1533 1533 1535 1536 1537 1537 1538 1539 1540 1541 1542 1542 1543 1544 1545 1546 1547 1548 1549 1551 1552 1553
1519 1512 1504 1502 1505 1502 1501 1501 1502 1503 1503 1505 1508 1509 1510 1511 1513 1515 1517 1519 1521 1523 1526 1528 1530 1530 1532 1533 1533 1534 1534 1535 1536 1537 1537 1538 1539 1540 1540 1541 1542 1543 1544 1545 1546 1547 1548 1549 1550
1515 1507 1501 1503 1505 1505 1505 1505 1505 1502 1503 1507 1510 1511 1511 1512 1513 1515 1517 1518 1520 1522 1525 1526 1529 1530 1531 1533 1533 1533 1533 1534 1534 1535 1535 1535 1536 1538 1539 1538 1538 1539 1540 1541 1542 1543 1544 1545 1547
1510 1504 1504 1506 1507 1508 1506 1507 1509 1505 1508 1514 1513 1513 1513 1514 1516 1517 1518 1520 1521 1523 1524 1526 1528 1529 1530 1531 1531 1532 1532 1532 1531 1532 1532 1532 1533 1533 1534 1535 1535 1535 1536 1537 1539 1539 1540 1542 1543
1509 1506 1508 1507 1508 1509 1509 1509 1513 1516 1520 1519 1516 1515 1516 1517 1518 1519 1520 1521 1522 1524 1525 1526 1526 1526 1527 1528 1529 1529 1529 1529 1529 1528 1527 1528 1528 1528 1529 1530 1531 1531 1532 1533 1535 1535 1536 1537 1538
1507 1506 1508 1508 1509 1510 1511 1514 1517 1522 1522 1520 1518 1518 1518 1519 1520 1520 1521 1522 1523 1524 1524 1525 1525 1525 1525 1525 1525 1525 1525 1525 1525 1523 1522 1522 1522 1523 1523 1523 1524 1526 1528 1529 1529 1530 1531 1531 1533
1505 1507 1508 1509 1510 1512 1513 1517 1520 1525 1524 1523 1521 1521 1520 1521 1521 1521 1521 1522 1522 1522 1523 1523 1524 1524 1523 1523 1523 1522 1522 1520 1519 1518 1517 1516 1516 1516 1517 1517 1518 1519 1521 1523 1524 1524 1525 1526 1527
1506 1504 1506 1509 1510 1511 1510 1518 1526 1528 1526 1526 1525 1524 1524 1523 1523 1523 1523 1522 1523 1523 1523 1523 1524 1523 1522 1521 1520 1519 1518 1516 1514 1512 1510 1509 1508 1509 1510 1511 1512 1513 1515 1516 1517 1518 1519 1520 1521
1500 1497 1502 1510 1509 1510 1509 1523 1530 1529 1528 1528 1528 1527 1527 1527 1526 1525 1524 1524 1524 1524 1523 1523 1523 1522 1521 1519 1517 1516 1514 1511 1508 1505 1502 1501 1501 1502 1503 1504 1505 1507 1509 1510 1512 1513 1513 1514 1515
1494 1496 1500 1508 1510 1508 1509 1525 1531 1531 1530 1530 1530 1530 1530 1529 1528 1527 1527 1526 1525 1525 1524 1524 1523 1521 1519 1518 1515 1513 1511 1507 1504 1501 1498 1495 1494 1495 1497 1497 1499 1501 1502 1504 1506 1508 1509 1510 1510
1499 1497 1501 1507 1512 1511 1516 1527 1531 1532 1532 1532 1532 1532 1532 1531 1530 1529 1528 1528 1527 1526 1525 1524 1523 1520 1519 1517 1514 1512 1509 1506 1502 1499 1495 1491 1489 1490 1491 1491 1493 1495 1498 1500 1501 1503 1504 1505 1506
1497 1498 1502 1511 1515 1515 1521 1526 1530 1532 1532 1533 1533 1533 1533 1532 1532 1531 1530 1530 1529 1527 1526 1524 1522 1520 1518 1515 1513 1510 1508 1505 1501 1497 1493 1491 1488 1486 1486 1487 1488 1491 1494 1495 1497 1499 1500 1501 1503
1498 1499 1504 1513 1516 1517 1522 1527 1529 1531 1533 1533 1534 1534 1534 1533 1533 1533 1532 1531 1530 1528 1526 1524 1522 1520 1517 1515 1512 1509 1506 1504 1501 1497 1493 1491 1488 1487 1485 1485 1485 1487 1489 1491 1493 1495 1497 1498 1500
1496 1496 1500 1508 1515 1515 1518 1526 1527 1530 1532 1534 1534 1534 1534 1534 1534 1533 1532 1531 1530 1528 1526 1524 1521 1518 1516 1514 1512 1509 1506 1503 1500 1496 1493 1490 1488 1486 1484 1483 1483 1484 1486 1488 1490 1492 1493 1495 1497
1498 1493 1497 1505 1512 1510 1512 1522 1524 1525 1528 1531 1532 1533 1534 1534 1533 1533 1532 1531 1529 1527 1525 1522 1519 1517 1515 1512 1510 1508 1505 1502 1499 1495 1492 1489 1487 1485 1483 1482 1481 1481 1483 1484 1486 1488 1489 1491 1493
1497 1496 1497 1501 1503 1506 1509 1512 1521 1522 1524 1526 1529 1531 1532 1533 1532 1532 1531 1529 1528 1526 1523 1521 1517 1515 1512 1510 1507 1505 1503 1500 1498 1494 1491 1488 1485 1483 1481 1480 1479 1479 1479 1480 1482 1483 1485 1487 1489
1498 1498 1499 1498 1497 1511 1508 1510 1522 1518 1521 1523 1527 1529 1531 1531 1531 1530 1529 1527 1525 1523 1520 1518 1515 1511 1509 1506 1504 1501 1499 1496 1494 1491 1489 1487 1484 1482 1479 1477 1476 1476 1476 1476 1476 1478 1479 1481 1483
1496 1501 1508 1511 1510 1511 1505 1508 1520 1518 1522 1524 1525 1527 1529 1529 1529 1528 1526 1525 1522 1520 1517 1514 1511 1508 1505 1502 1500 1497 1495 1492 1489 1488 1486 1484 1482 1480 1477 1475 1474 1473 1472 1471 1471 1472 1473 1475 1477
1497 1498 1510 1519 1514 1507 1506 1511 1519 1521 1524 1525 1526 1526 1527 1527 1526 1525 1524 1522 1519 1516 1513 1510 1507 1504 1501 1498 1495 1492 1489 1488 1485 1483 1481 1479 1477 1476 1474 1472 1470 1469 1468 1467 1467 1466 1467 1468 1470
1497 1496 1495 1501 1502 1508 1506 1513 1521 1523 1523 1524 1524 1524 1525 1525 1524 1523 1521 1518 1516 1512 1509 1506 1503 1499 1496 1493 1489 1486 1484 1481 1479 1477 1475 1473 1472 1470 1468 1467 1466 1464 1463 1463 1462 1461 1460 1461 1463
1499 1499 1498 1502 1516 1517 1508 1508 1514 1518 1519 1520 1521 1522 1523 1523 1522 1520 1517 1515 1512 1509 1505 1502 1498 1494 1490 1487 1483 1481 1477 1475 1472 1470 1468 1466 1464 1463 1462 1461 1460 1459 1458 1458 1457 1456 1456 1455 1456
1502 1503 1503 1502 1507 1518 1518 1513 1512 1516 1519 1520 1520 1521 1521 1521 1519 1517 1514 1511 1508 1504 1500 1496 1492 1488 1484 1481 1477 1473 1470 1467 1464 1462 1460 1458 1456 1455 1454 1454 1453 1452 1452 1452 1451 1451 1451 1450 1450
1505 1507 1506 1512 1515 1512 1513 1513 1514 1516 1518 1520 1520 1520 1520 1518 1516 1513 1510 1507 1503 1499 1495 1491 1487 1483 1479 1474 1470 1466 1462 1459 1456 1454 1451 1449 1447 1446 1446 1445 1445 1445 1445 1445 1445 1445 1445 1445 1445